Simultaneous Nadir Overpasses (SNOs) Predictions

Prediction of SNOs between METOP-B and TERRA Satellite Orbit:

Table of predicted SNOs for the next 14.0 days since TLE Epoch: 2/15/2014
Index Date (METOP-B) Time (METOP-B) Lat,Lon (METOP-B) SZA (METOP-B ) Date (TERRA) Time (TERRA) Lat,Lon (TERRA) SZA (TERRA ) Distance(km) Time Diff (sec)
1 02/16/2014 14:30:25 81.30, 9.35 95.82 02/16/2014 14:30:33 81.29, 9.34 95.82 0.33 8
2 02/16/2014 15:21:04 -81.30, 177.09 84.16 02/16/2014 15:19:59 -81.31, 177.26 84.16 3.10 65
3 02/19/2014 10:04:45 81.30, 75.70 94.83 02/19/2014 10:04:49 81.30, 75.87 94.85 2.90 4
4 02/19/2014 10:55:24 -81.30,-116.55 85.14 02/19/2014 10:54:16 -81.30,-116.56 85.18 0.75 68
5 02/22/2014 04:48:32 -81.23, -28.66 86.56 02/22/2014 04:49:46 -81.12, -28.40 86.59 13.01 74
6 02/22/2014 05:39:04 81.30, 142.30 93.85 02/22/2014 05:39:04 81.30, 142.27 93.84 0.62 0
7 02/22/2014 06:29:43 -81.31, -49.93 86.12 02/22/2014 06:28:30 -81.32, -49.77 86.13 2.92 73
8 02/25/2014 00:22:42 -81.29, 40.93 87.22 02/25/2014 00:23:51 -81.29, 40.86 87.20 1.41 69
9 02/25/2014 01:13:22 81.30,-151.23 92.83 02/25/2014 01:13:16 81.31,-151.09 92.85 2.60 6
10 02/27/2014 19:57:01 -81.29, 107.30 88.26 02/27/2014 19:58:03 -81.29, 107.40 88.22 1.75 62




NCC Satellite Simultaneous Nadir Overpasses (SNOs) Prediction Service
